Location: Brunembert
(50.7122°N, 1.8935°E)
Time: 10:19:24
(UTC+00:00)

Cosmos 2184 Rocket - Pass Details

Date: 22 April 2021
Orbit: 959 x 1002 km, 82.9° (Epoch: 05 May)

Event Time Altitude Azimuth Distance (km) Brightness Sun altitude
Rises 23:04:58 0° 351° (N) 3,726 8.4 -26.0°
Reaches altitude 10° 23:07:34 10° 355° (N) 2,767 7.4 -26.1°
Maximum altitude 23:13:51 62° 76° (ENE) 1,103 4.2 -26.2°
Enters shadow 23:14:59 53° 120° (ESE) 1,190 4.1 -26.3°
